Weather in Trinidad

Cuba     21°47′58″N   79°59′02″W
temp.,
°C
wind,
m/s
gust,
m/s
humid.,
%
clouds,
%
prec.,
mm/h
press.,
hPa
HPBL,
m
18 april, sun
sun1823:00+24ese12830 0.0 1015293
02:00+24e22857 0.0 1014326
05:00+24ene128714 0.1 1014233
08:00+24ne33863 0.1 1015165
11:00+27se34731 0.1 1016637
14:00+28s56700 0.1 1015722
17:00+28sse687298 0.0 1013838
20:00+26s3585100 0.0 1014385
19 april, mon
mon1923:00+25ese348741 0.0 1015398
02:00+25sse338531 0.1 1015405
05:00+25s238497 0.1 1014366
08:00+26sse468027 0.1 1016759
11:00+27sse567681 0.2 1016685
14:00+28s566955 0.2 1016718
17:00+28s45665 0.0 1014703
20:00+26s22780 0.0 1015255
20 april, tue
tue2023:00+25sw12810 0.0 1016326
02:00+24e118310 0.0 1015334
05:00+24ne11863 0.0 1015131
08:00+25e238067 0.0 1017547
11:00+27sse456661 0.0 1018784
14:00+28sse56625 0.0 1016931
17:00+28s45653 0.0 1015757
20:00+26sw12755 0.0 1015266
21 april, wed
wed2123:00+24nne117932 0.0 1017110
02:00+23ne22823 0.0 1017123
05:00+23nne22846 0.0 101681
08:00+24ne22754 0.0 1017119
11:00+27s32670 0.0 1018572
14:00+28ssw54636 0.0 1017597
17:00+28sw556392 0.0 1015683
20:00+26w3368100 0.0 1016231
22 april, thu
thu2223:00+26nnw226821 0.0 1017137
02:00+24ne337257 0.0 1016136
05:00+24ne22747 0.0 1015118
08:00+25ne22713 0.0 1017160
11:00+29sse23534 0.0 1017813
14:00+28ssw64596 0.0 1016689
17:00+27wsw336370 0.3 1014419
20:00+26n337412 0.9 1016203